Location: Bacharowice
(49.9333°N, 19.5833°E)
Time: 02:01:27
(UTC+00:00)

Thor Agena Rocket - Pass Details

Date: 11 May 2021
Orbit: 760 x 807 km, 99.0° (Epoch: 24 June)

Event Time Altitude Azimuth Distance (km) Brightness Sun altitude
Rises 22:24:22 0° 17° (NNE) 3,304 8.0 -21.9°
Reaches altitude 10° 22:26:43 10° 21° (NNE) 2,376 7.0 -21.9°
Maximum altitude 22:31:56 64° 103° (ESE) 891 3.7 -21.9°
Enters shadow 22:33:12 48° 158° (SSE) 1,040 3.7 -21.9°
